Simultaneous Nadir Overpasses (SNOs) Predictions

Prediction of SNOs between AQUA and METOP-A Satellite Orbit:

Table of predicted SNOs for the next 14.0 days since TLE Epoch: 9/9/2016
Index Date (AQUA) Time (AQUA) Lat,Lon (AQUA) SZA (AQUA ) Date (METOP-A) Time (METOP-A) Lat,Lon (METOP-A) SZA (METOP-A ) Distance(km) Time Diff (sec)
1 09/12/2016 02:13:08 -73.82, -39.12 110.27 09/12/2016 02:12:16 -73.80, -39.13 110.28 2.19 52
2 09/12/2016 03:02:37 73.91, 128.33 69.84 09/12/2016 03:02:54 73.89, 128.42 69.83 3.19 17
3 09/12/2016 03:52:16 -74.59, -65.63 109.42 09/12/2016 03:53:21 -74.61, -62.41 109.48 95.00 65
4 09/14/2016 21:47:21 -73.81, 27.35 109.21 09/14/2016 21:46:38 -73.82, 27.32 109.19 1.76 43
5 09/14/2016 22:36:50 73.89,-165.20 70.90 09/14/2016 22:37:16 73.91,-165.12 70.92 3.29 26
6 09/17/2016 17:21:35 -73.81, 93.79 108.13 09/17/2016 17:21:01 -73.83, 93.76 108.10 3.23 34
7 09/17/2016 18:11:04 73.89, -98.76 71.98 09/17/2016 18:11:40 73.88, -98.80 71.96 2.02 36
8 09/20/2016 12:55:49 -73.82, 160.20 107.03 09/20/2016 12:55:24 -73.85, 160.20 107.00 2.87 25
9 09/20/2016 13:45:18 73.91, -32.36 73.08 09/20/2016 13:46:03 73.89, -32.36 73.06 2.07 45
10 09/23/2016 07:40:25 73.21, 60.30 73.42 09/23/2016 07:39:19 73.17, 57.74 73.44 82.48 66
11 09/23/2016 08:30:03 -73.85,-133.42 105.91 09/23/2016 08:29:47 -73.86,-133.36 105.90 2.04 16
12 09/23/2016 09:19:30 73.89, 34.13 74.15 09/23/2016 09:20:25 73.90, 34.08 74.16 2.28 55




NCC Satellite Simultaneous Nadir Overpasses (SNOs) Prediction Service
